Location: D and GW Ditch
(38.8371°N, 119.1652°W)
Time: 07:58:43
(UTC+00:00)

Daily predictions for brighter satellites

Satellite Brightness Start Highest point End
(mag) Time Altitude Azimuth Time Altitude Azimuth Time Altitude Azimuth
Cosmos 2333 Rocket 3.5 12:13:27 35° NE 12:13:27 35° NE 12:16:44 10° NNE
Cosmos 2219 Rocket 3.2 12:17:16 41° NE 12:17:16 41° NE 12:21:05 10° NNE
COSMOS 2428 3.0 12:30:54 65° ESE 12:30:56 65° ESE 12:36:34 10° NNE
Cosmos 921 Rocket 4.0 12:43:58 44° E 12:43:58 44° E 12:47:50 10° NNE
Cosmos 2360 Rocket 4.3 12:49:00 13° N 12:49:00 13° N 12:49:42 10° N
COSMO-SKYMED 1 3.8 12:41:44 10° SE 12:45:45 39° ENE 12:47:20 28° NNE
SJ 16-02 2.3 12:52:18 39° SSE 12:52:18 39° SSE 12:55:03 10° SSE
IRIDIUM 104 4.4 12:45:59 10° S 12:51:11 74° E 12:56:23 10° N
CZ-2C R/B 3.3 12:59:14 20° S 12:59:54 21° SSE 13:02:55 10° ESE
IRIDIUM 114 4.2 12:55:04 10° S 13:00:17 90° NNE 13:05:32 10° N
CZ-4B R/B 3.5 13:00:05 10° NNE 13:03:36 49° E 13:07:11 10° S
USA 276 4.1 13:05:16 26° SE 13:05:16 26° SE 13:06:49 10° SE
Meteor 1-24 Rocket 3.6 13:07:14 58° W 13:07:14 58° W 13:12:44 10° S
CZ-4B R/B 3.4 13:05:27 10° SSE 13:06:46 22° SSE 13:06:46 22° SSE
IRIDIUM 103 4.1 13:04:15 10° S 13:09:26 74° W 13:14:40 10° N
ADEOS 3.5 13:05:22 10° N 13:10:26 58° WNW 13:10:26 58° WNW
Meteor 2-10 4.0 13:05:55 10° S 13:11:36 82° W 13:17:09 10° N
Okean 1-7 Rocket 4.4 13:09:23 10° N 13:13:50 53° E 13:18:12 10° SSE
Cosmos 1513 Rocket 4.4 13:08:28 10° S 13:14:49 90° ESE 13:21:07 10° N
Cosmos 1844 4.2 13:15:29 40° WSW 13:15:29 40° WSW 13:20:16 10° S
NOSS 0 Rocket 4.0 13:10:36 10° SSW 13:16:47 78° ESE 13:22:58 10° NNE
Lacrosse 5 rocket 3.6 13:15:34 12° N 13:16:48 14° NNE 13:18:49 10° ENE
Cosmos 540 Rocket 4.0 13:12:01 10° S 13:17:01 59° ESE 13:22:04 10° NNE
Cosmos 1689 Rocket 3.8 13:17:13 10° SE 13:19:51 32° ENE 13:21:07 22° NNE
BREEZE M DEB (TANK) 3.5 13:20:28 21° SE 13:20:38 21° SE 13:22:37 10° ENE
Cosmos 990 Rocket 3.9 13:18:25 24° NNW 13:21:33 90° N 13:26:41 10° SSE
Cosmos 1891 Rocket 4.3 13:16:45 10° S 13:22:59 76° W 13:29:07 10° N
MOS 1 Rocket 3.6 13:18:27 10° SSE 13:23:34 74° ENE 13:28:24 10° N
SAR-Lupe-4 4.2 13:21:47 10° SSE 13:25:17 54° ENE 13:28:05 15° N
Cosmos 1464 Rocket 3.8 13:20:20 10° S 13:26:27 78° W 13:32:36 10° N
H-2A R/B 2.8 13:23:18 10° NNE 13:27:01 73° ESE 13:30:43 10° S
IRIDIUM 106 4.4 13:22:45 10° SSW 13:27:47 49° W 13:32:51 10° N
Cosmos 1455 Rocket 2.9 13:26:20 10° SSW 13:30:39 61° W 13:34:58 10° N
Cosmos 1072 Rocket 4.4 13:24:50 10° SSW 13:30:56 66° W 13:37:12 10° N
Atlas Centaur 2 4.0 13:25:11 15° SW 13:31:21 42° SSE 13:39:12 10° ESE
Cosmos 1400 Rocket 4.3 13:28:43 10° SSE 13:32:29 39° E 13:36:19 10° NNE
SKYMED 2 3.6 13:29:27 10° S 13:33:42 57° W 13:35:54 27° NNW
SAR-Lupe-1 4.1 13:32:39 10° SSE 13:36:12 76° ENE 13:39:15 14° N
Cosmos 1844 Rocket 4.2 13:39:02 17° SW 13:39:02 17° SW 13:41:07 10° SW
SL-4 R/B 3.8 13:34:58 10° SSW 13:38:11 28° SE 13:41:38 10° ENE
OAO 2 Rocket 3.7 13:37:56 27° WSW 13:40:22 55° S 13:45:10 10° E
SL-16 R/B 4.2 13:35:36 10° SSE 13:40:25 30° ESE 13:45:17 10° NE
Chandra Rocket (1) 3.8 13:39:13 14° SW 13:41:09 17° SSW 13:43:14 10° SE
Cosmos 1763 Rocket 3.8 13:38:47 17° SW 13:42:18 40° WNW 13:47:13 10° N
PSLV R/B 4.2 13:40:56 10° NNE 13:44:52 66° E 13:48:52 10° S
Cosmos 2278 Rocket 2.3 13:40:09 10° NNW 13:45:51 79° ENE 13:51:31 10° SSE
Cosmos 841 Rocket 3.3 13:42:29 10° SSW 13:47:36 76° WNW 13:52:45 10° NNE
GPS 2-04 Rocket1 4.0 13:47:27 22° WSW 13:49:05 30° SSW 13:52:44 10° SE
H-2A R/B 4.1 13:44:52 10° NNE 13:49:08 41° E 13:53:23 10° S
Cosmos 1898 Rocket 3.5 13:45:09 14° NNW 13:49:26 58° WSW 13:54:29 10° S
deb Chang Zheng 4 4.0 13:46:07 10° N 13:50:00 35° WNW 13:53:51 10° SW
SJ-7 4.3 13:45:54 10° N 13:50:04 83° WNW 13:54:09 10° SSW
Okean O Rocket 3.9 13:46:22 10° NE 13:50:07 28° E 13:53:51 10° SSE
SMAP 4.5 13:46:04 10° NNE 13:50:28 41° E 13:54:51 10° S
ATLAS CENTAUR R/B 3.2 13:47:53 10° S 13:51:11 30° ESE 13:54:25 10° NE
Cosmos 2237 Rocket 2.1 13:47:40 10° SSW 13:53:18 71° WNW 13:59:00 10° NNE
Cosmos 2333 Rocket 3.4 13:55:32 20° WNW 13:55:51 20° NW 13:59:58 10° N
SL-8 R/B 4.2 13:52:55 20° NW 13:56:05 53° NNE 14:00:48 10° ESE
CZ-2C R/B 3.6 13:51:49 10° SE 13:56:45 46° ENE 14:01:47 10° N
Cosmos 1570 Rocket 3.9 13:52:12 10° SSW 13:57:24 76° WNW 14:02:40 10° NNE
YAOGAN 6 2.5 13:53:46 10° N 13:57:27 70° WNW 14:01:07 10° SSW
Cosmos 1092 Rocket 4.4 13:52:27 10° N 13:58:35 66° E 14:04:42 10° SSE
Cosmos 1953 2.5 13:55:57 10° SSW 13:59:45 44° W 14:03:35 10° N
Cosmos 2219 Rocket 3.3 13:59:04 20° WNW 13:59:56 20° NW 14:04:03 10° N
FALCON 9 DEB 3.5 13:58:52 27° W 14:00:18 43° NW 14:03:34 10° NE
Cosmos 2034 Rocket 4.1 13:57:11 10° SSW 14:03:25 57° W 14:09:42 10° N
Cosmos 1602 Rocket 3.8 14:01:25 10° N 14:05:53 75° E 14:10:20 10° SSE
USA 307 4.3 14:03:44 10° SSW 14:07:42 41° SE 14:11:41 10° ENE
PSLV R/B 4.3 14:04:40 10° S 14:08:31 41° W 14:12:26 10° NNW
Cosmos 1461 4.2 14:07:25 16° W 14:10:15 27° NW 14:14:18 10° N
ERS-2 3.2 14:07:16 10° SSW 14:10:17 24° W 14:12:15 16° NW
Cosmos 1908 3.3 14:07:46 10° SSW 14:11:26 49° W 14:15:09 10° N
COSMOS 2428 4.0 14:13:02 14° W 14:15:41 19° NW 14:19:41 10° N
GEOS 3 Rocket 4.1 14:11:04 10° S 14:16:07 44° WSW 14:21:16 10° NW
Nadezhda 4 Rocket 4.1 14:10:17 10° NNW 14:16:12 53° W 14:22:06 10° SSW
USA 308 3.9 14:12:17 10° SSW 14:16:21 49° SE 14:20:26 10° ENE
Cosmos 2208 Rocket 4.1 14:11:02 10° SSW 14:16:25 63° WNW 14:21:50 10° NNE
USA 305 3.7 14:13:10 10° SSW 14:17:17 54° SE 14:21:26 10° NE
MOS 1-B 4.3 14:12:40 10° NNE 14:18:28 86° WNW 14:24:15 10° SSW
Cosmos 1315 Rocket 4.1 14:16:04 10° SSE 14:19:47 43° E 14:23:30 10° NNE
Cosmos 1634 Rocket 4.0 14:14:08 10° S 14:20:17 87° E 14:26:29 10° N
COSMO-SKYMED 1 4.1 14:19:17 10° SW 14:22:03 17° W 14:24:33 11° NW
CORIOLIS 4.5 14:18:10 10° NNE 14:23:32 71° ESE 14:28:51 10° S
Cosmos 1814 Rocket 4.2 14:18:44 10° SW 14:23:41 48° WNW 14:28:39 10° N
Cosmos 1937 Rocket 4.0 14:20:13 10° NW 14:25:04 38° W 14:29:50 10° SSW
Cosmos 1980 4.2 14:21:00 10° SW 14:26:09 35° WNW 14:31:21 10° N
CENTAUR R/B 3.4 14:21:47 10° S 14:27:11 51° ESE 14:33:32 10° NE
NOAA 11 4.5 14:23:06 10° NNE 14:28:36 75° ESE 14:34:01 10° S
Envisat 3.4 14:24:20 10° N 14:29:02 39° WNW 14:33:42 10° SW
USA 306 3.3 14:24:50 10° SW 14:29:02 69° SE 14:33:16 10° NE
Cosmos 372 Rocket 4.0 14:24:03 10° NNW 14:29:18 71° WSW 14:34:29 10° S
SWAS 4.5 14:25:13 10° SW 14:29:24 59° WNW 14:33:38 10° NNE
NOAA 6 4.2 14:26:16 10° N 14:31:18 52° WNW 14:36:19 10° SSW
USA 238 DEB 3.8 14:31:29 10° SSW 14:37:59 83° ESE 14:44:48 10° NE
USA 238 3.8 14:31:36 10° SSW 14:38:06 83° ESE 14:44:55 10° NE
CZ-2C R/B 2.2 14:35:19 10° WSW 14:39:09 42° S 14:42:45 10° E
BREEZE-M DEB (TANK) 2.6 14:36:36 10° WNW 14:43:29 65° SW 14:46:08 10° SE
